| time (UTC) | temp F | wind direction | speed knots | gust knots | rain 1hr in | rain 24hr in | rain mn in | humidity % | barometer mb |
| 20260509213053 | 50 | 0 | 0.0 | 0.0 | 0.00 | 0.00 | 0.00 | 75 | 1020.2 |
| 20260509212552 | 50 | 0 | 0.0 | 0.0 | 0.00 | 0.00 | 0.00 | 75 | 1020.3 |
| 20260509212059 | 51 | 0 | 0.0 | 0.0 | 0.00 | 0.00 | 0.00 | 75 | 1020.2 |
| 20260509211558 | 51 | 0 | 0.0 | 0.0 | 0.00 | 0.00 | 0.00 | 75 | 1020.4 |
| 20260509211052 | 51 | 0 | 0.0 | 0.9 | 0.00 | 0.00 | 0.00 | 74 | 1020.4 |
| 20260509210552 | 51 | 0 | 0.0 | 0.9 | 0.00 | 0.00 | 0.00 | 74 | 1020.4 |
| 20260509210114 | 51 | 0 | 0.0 | 0.9 | 0.00 | 0.00 | 0.00 | 73 | 1020.5 |
| 20260509205553 | 52 | 0 | 0.0 | 0.9 | 0.00 | 0.00 | 0.00 | 74 | 1020.5 |
| 20260509205053 | 52 | 0 | 0.0 | 0.9 | 0.00 | 0.00 | 0.00 | 72 | 1020.4 |
| 20260509204559 | 53 | 0 | 0.0 | 0.9 | 0.00 | 0.00 | 0.00 | 72 | 1020.4 |
| 20260509204053 | 53 | 0 | 0.0 | 0.9 | 0.00 | 0.00 | 0.00 | 70 | 1020.4 |
| 20260509203552 | 54 | 0 | 0.0 | 1.7 | 0.00 | 0.00 | 0.00 | 70 | 1020.5 |
| 20260509203056 | 54 | 73 | 0.0 | 2.6 | 0.00 | 0.00 | 0.00 | 68 | 1020.4 |
| 20260509202553 | 54 | 0 | 0.0 | 4.3 | 0.00 | 0.00 | 0.00 | 68 | 1020.4 |
| 20260509202052 | 54 | 61 | 0.0 | 4.3 | 0.00 | 0.00 | 0.00 | 68 | 1020.4 |
| 20260509201603 | 54 | 73 | 0.0 | 4.3 | 0.00 | 0.00 | 0.00 | 68 | 1020.6 |
| 20260509201052 | 54 | 98 | 0.0 | 3.5 | 0.00 | 0.00 | 0.00 | 68 | 1020.5 |
| 20260509200552 | 54 | 96 | 0.0 | 3.5 | 0.00 | 0.00 | 0.00 | 68 | 1020.6 |
| 20260509200103 | 54 | 90 | 0.0 | 1.7 | 0.00 | 0.00 | 0.00 | 70 | 1020.6 |
| 20260509195552 | 54 | 0 | 0.0 | 1.7 | 0.00 | 0.00 | 0.00 | 70 | 1020.7 |
| 20260509195051 | 54 | 0 | 0.0 | 0.9 | 0.00 | 0.00 | 0.00 | 70 | 1020.8 |
| 20260509194558 | 54 | 0 | 0.0 | 0.9 | 0.00 | 0.00 | 0.00 | 70 | 1020.7 |
| 20260509194051 | 54 | 0 | 0.0 | 3.5 | 0.00 | 0.00 | 0.00 | 70 | 1020.8 |
| 20260509193550 | 54 | 87 | 0.0 | 3.5 | 0.00 | 0.00 | 0.00 | 69 | 1020.8 |
| 20260509193052 | 54 | 70 | 0.0 | 2.6 | 0.00 | 0.00 | 0.00 | 70 | 1020.8 |
| 20260509192550 | 54 | 0 | 0.0 | 2.6 | 0.00 | 0.00 | 0.00 | 70 | 1020.8 |
| 20260509192048 | 54 | 58 | 0.0 | 2.6 | 0.00 | 0.00 | 0.00 | 70 | 1020.7 |
| 20260509191551 | 54 | 87 | 0.0 | 2.6 | 0.00 | 0.00 | 0.00 | 71 | 1020.8 |
| 20260509191050 | 53 | 81 | 0.0 | 2.6 | 0.00 | 0.00 | 0.00 | 72 | 1020.8 |
| 20260509190552 | 52 | 76 | 0.0 | 1.7 | 0.00 | 0.00 | 0.00 | 75 | 1020.9 |
| 20260509190106 | 51 | 0 | 0.0 | 0.0 | 0.00 | 0.00 | 0.00 | 77 | 1020.8 |
| 20260509185552 | 51 | 0 | 0.0 | 0.0 | 0.00 | 0.00 | 0.00 | 78 | 1020.8 |
| 20260509185052 | 51 | 0 | 0.0 | 0.0 | 0.00 | 0.00 | 0.00 | 78 | 1020.8 |
| 20260509184554 | 51 | 0 | 0.0 | 0.0 | 0.00 | 0.00 | 0.00 | 77 | 1020.8 |
| 20260509184051 | 52 | 0 | 0.0 | 0.0 | 0.00 | 0.00 | 0.00 | 77 | 1020.9 |
| 20260509183551 | 52 | 0 | 0.0 | 0.0 | 0.00 | 0.00 | 0.00 | 77 | 1020.9 |
| 20260509183057 | 52 | 0 | 0.0 | 0.0 | 0.00 | 0.00 | 0.00 | 77 | 1020.8 |
| 20260509182550 | 52 | 0 | 0.0 | 0.0 | 0.00 | 0.00 | 0.00 | 77 | 1020.8 |
| 20260509182048 | 52 | 0 | 0.0 | 0.0 | 0.00 | 0.00 | 0.00 | 77 | 1020.7 |
| 20260509181559 | 53 | 0 | 0.0 | 0.0 | 0.00 | 0.00 | 0.00 | 76 | 1020.7 |
| 20260509181048 | 53 | 0 | 0.0 | 0.0 | 0.00 | 0.00 | 0.00 | 76 | 1020.7 |
| 20260509180552 | 53 | 0 | 0.0 | 0.0 | 0.00 | 0.00 | 0.00 | 76 | 1020.7 |
| 20260509180053 | 53 | 0 | 0.0 | 0.0 | 0.00 | 0.00 | 0.00 | 77 | 1020.7 |
| 20260509175551 | 53 | 0 | 0.0 | 0.0 | 0.00 | 0.00 | 0.00 | 76 | 1020.7 |
| 20260509175054 | 53 | 0 | 0.0 | 0.0 | 0.00 | 0.00 | 0.00 | 74 | 1020.7 |
| 20260509174553 | 53 | 0 | 0.0 | 0.0 | 0.00 | 0.00 | 0.00 | 75 | 1020.6 |
| 20260509174051 | 53 | 0 | 0.0 | 0.0 | 0.00 | 0.00 | 0.00 | 74 | 1020.6 |
| 20260509173551 | 53 | 0 | 0.0 | 0.0 | 0.00 | 0.00 | 0.00 | 74 | 1020.7 |
| 20260509173051 | 53 | 0 | 0.0 | 0.0 | 0.00 | 0.00 | 0.00 | 74 | 1020.7 |
| 20260509172548 | 53 | 0 | 0.0 | 0.0 | 0.00 | 0.00 | 0.00 | 74 | 1020.7 |
| 20260509172049 | 54 | 0 | 0.0 | 0.0 | 0.00 | 0.00 | 0.00 | 74 | 1020.7 |
| 20260509171554 | 54 | 0 | 0.0 | 0.0 | 0.00 | 0.00 | 0.00 | 73 | 1020.7 |
| 20260509171050 | 54 | 0 | 0.0 | 0.0 | 0.00 | 0.00 | 0.00 | 73 | 1020.5 |
| 20260509170548 | 54 | 0 | 0.0 | 0.0 | 0.00 | 0.00 | 0.00 | 73 | 1020.5 |
| 20260509170106 | 54 | 0 | 0.0 | 0.0 | 0.00 | 0.00 | 0.00 | 73 | 1020.4 |
| 20260509165551 | 54 | 0 | 0.0 | 0.0 | 0.00 | 0.00 | 0.00 | 73 | 1020.5 |
| 20260509165053 | 54 | 0 | 0.0 | 0.0 | 0.00 | 0.00 | 0.00 | 73 | 1020.4 |
| 20260509164557 | 54 | 0 | 0.0 | 0.0 | 0.00 | 0.00 | 0.00 | 73 | 1020.4 |
| 20260509164051 | 55 | 0 | 0.0 | 0.0 | 0.00 | 0.00 | 0.00 | 72 | 1020.4 |
| 20260509163551 | 55 | 0 | 0.0 | 0.0 | 0.00 | 0.00 | 0.00 | 71 | 1020.4 |
| 20260509163053 | 55 | 0 | 0.0 | 0.0 | 0.00 | 0.00 | 0.00 | 70 | 1020.4 |
| 20260509162552 | 56 | 0 | 0.0 | 0.0 | 0.00 | 0.00 | 0.00 | 70 | 1020.2 |
| 20260509162055 | 56 | 0 | 0.0 | 0.0 | 0.00 | 0.00 | 0.00 | 70 | 1020.2 |
| 20260509161600 | 56 | 0 | 0.0 | 0.0 | 0.00 | 0.00 | 0.00 | 69 | 1020.1 |
| 20260509161054 | 56 | 0 | 0.0 | 0.9 | 0.00 | 0.00 | 0.00 | 68 | 1020.1 |
| 20260509160554 | 57 | 0 | 0.0 | 0.9 | 0.00 | 0.00 | 0.00 | 68 | 1020.1 |
| 20260509160055 | 57 | 0 | 0.0 | 0.9 | 0.00 | 0.00 | 0.00 | 67 | 1020.1 |
| 20260509155554 | 58 | 0 | 0.0 | 1.7 | 0.00 | 0.00 | 0.00 | 67 | 1020.0 |
| 20260509155052 | 58 | 0 | 0.0 | 1.7 | 0.00 | 0.00 | 0.00 | 65 | 1020.1 |
| 20260509154558 | 58 | 95 | 0.0 | 1.7 | 0.00 | 0.00 | 0.00 | 65 | 1020.0 |
| 20260509154053 | 58 | 0 | 0.0 | 1.7 | 0.00 | 0.00 | 0.00 | 64 | 1020.2 |
| 20260509153553 | 58 | 0 | 0.0 | 2.6 | 0.00 | 0.00 | 0.00 | 64 | 1020.0 |
| 20260509153057 | 59 | 0 | 0.0 | 2.6 | 0.00 | 0.00 | 0.00 | 65 | 1020.0 |
| 20260509152553 | 59 | 0 | 0.0 | 2.6 | 0.00 | 0.00 | 0.00 | 63 | 1019.9 |
| 20260509152054 | 59 | 0 | 0.0 | 1.7 | 0.00 | 0.00 | 0.00 | 62 | 1019.9 |
| 20260509151552 | 60 | 0 | 0.0 | 1.7 | 0.00 | 0.00 | 0.00 | 62 | 1020.0 |
| 20260509151052 | 60 | 0 | 0.0 | 0.9 | 0.00 | 0.00 | 0.00 | 61 | 1019.9 |
| 20260509150552 | 61 | 0 | 0.0 | 0.9 | 0.00 | 0.00 | 0.00 | 61 | 1020.0 |
| 20260509150053 | 61 | 0 | 0.0 | 0.9 | 0.00 | 0.00 | 0.00 | 60 | 1020.0 |
| 20260509145553 | 61 | 0 | 0.0 | 2.6 | 0.00 | 0.00 | 0.00 | 59 | 1019.9 |
| 20260509145056 | 62 | 0 | 0.0 | 2.6 | 0.00 | 0.00 | 0.00 | 58 | 1019.9 |
| 20260509144556 | 62 | 103 | 0.0 | 2.6 | 0.00 | 0.00 | 0.00 | 57 | 1019.9 |
| 20260509144052 | 62 | 94 | 0.0 | 2.6 | 0.00 | 0.00 | 0.00 | 57 | 1019.9 |
| 20260509143553 | 63 | 0 | 0.0 | 2.6 | 0.00 | 0.00 | 0.00 | 56 | 1019.9 |
| 20260509143056 | 63 | 0 | 0.0 | 2.6 | 0.00 | 0.00 | 0.00 | 56 | 1019.9 |
| 20260509142554 | 63 | 0 | 0.0 | 3.5 | 0.00 | 0.00 | 0.00 | 55 | 1019.8 |
| 20260509142057 | 63 | 0 | 0.0 | 4.3 | 0.00 | 0.00 | 0.00 | 55 | 1019.8 |
| 20260509141553 | 63 | 0 | 0.9 | 4.3 | 0.00 | 0.00 | 0.00 | 53 | 1019.8 |
| 20260509141053 | 64 | 105 | 0.0 | 3.5 | 0.00 | 0.00 | 0.00 | 53 | 1019.8 |
| 20260509140552 | 65 | 96 | 0.9 | 4.3 | 0.00 | 0.00 | 0.00 | 53 | 1019.9 |
| 20260509135553 | 65 | 0 | 0.0 | 4.3 | 0.00 | 0.00 | 0.00 | 54 | 1019.8 |
| 20260509135051 | 65 | 75 | 0.0 | 6.1 | 0.00 | 0.00 | 0.00 | 52 | 1019.8 |
| 20260509134625 | 65 | 345 | 0.9 | 6.1 | 0.00 | 0.00 | 0.00 | 52 | 1019.8 |
| 20260509134056 | 66 | 59 | 0.9 | 2.6 | 0.00 | 0.00 | 0.00 | 51 | 1019.8 |
| 20260509133554 | 66 | 131 | 0.9 | 5.2 | 0.00 | 0.00 | 0.00 | 51 | 1019.9 |
| 20260509133058 | 66 | 65 | 0.0 | 5.2 | 0.00 | 0.00 | 0.00 | 51 | 1019.8 |
| 20260509132553 | 66 | 347 | 0.9 | 5.2 | 0.00 | 0.00 | 0.00 | 50 | 1019.9 |
| 20260509132052 | 66 | 115 | 0.9 | 4.3 | 0.00 | 0.00 | 0.00 | 49 | 1019.9 |
| 20260509131555 | 66 | 99 | 0.9 | 4.3 | 0.00 | 0.00 | 0.00 | 51 | 1019.8 |
| 20260509131050 | 66 | 0 | 0.9 | 6.1 | 0.00 | 0.00 | 0.00 | 51 | 1019.9 |
| 20260509130549 | 66 | 108 | 0.9 | 6.1 | 0.00 | 0.00 | 0.00 | 49 | 1020.0 |
| 20260509130111 | 67 | 53 | 0.9 | 6.1 | 0.00 | 0.00 | 0.00 | 50 | 1020.0 |
| 20260509125547 | 66 | 23 | 0.9 | 6.1 | 0.00 | 0.00 | 0.00 | 50 | 1019.9 |
| 20260509125049 | 67 | 121 | 1.7 | 6.1 | 0.00 | 0.00 | 0.00 | 51 | 1020.0 |
| 20260509124608 | 66 | 23 | 0.0 | 7.8 | 0.00 | 0.00 | 0.00 | 51 | 1020.1 |
| 20260509124051 | 66 | 79 | 1.7 | 7.8 | 0.00 | 0.00 | 0.00 | 50 | 1020.0 |
| 20260509123549 | 66 | 349 | 1.7 | 7.8 | 0.00 | 0.00 | 0.00 | 49 | 1020.1 |
| 20260509123105 | 67 | 41 | 0.9 | 7.8 | 0.00 | 0.00 | 0.00 | 49 | 1020.1 |
| 20260509122551 | 67 | 342 | 0.9 | 4.3 | 0.00 | 0.00 | 0.00 | 50 | 1020.0 |
| 20260509122048 | 66 | 28 | 0.9 | 3.5 | 0.00 | 0.00 | 0.00 | 50 | 1020.2 |
| 20260509121557 | 66 | 318 | 0.0 | 4.3 | 0.00 | 0.00 | 0.00 | 52 | 1020.2 |
| 20260509121052 | 66 | 103 | 0.9 | 4.3 | 0.00 | 0.00 | 0.00 | 52 | 1020.2 |
| 20260509120552 | 66 | 131 | 0.9 | 4.3 | 0.00 | 0.00 | 0.00 | 52 | 1020.3 |
| 20260509120104 | 66 | 209 | 1.7 | 7.0 | 0.00 | 0.00 | 0.00 | 51 | 1020.3 |
| 20260509115548 | 66 | 197 | 0.9 | 7.0 | 0.00 | 0.00 | 0.00 | 52 | 1020.4 |
| 20260509115052 | 66 | 75 | 0.9 | 7.0 | 0.00 | 0.00 | 0.00 | 52 | 1020.5 |
| 20260509114613 | 66 | 36 | 0.9 | 4.3 | 0.00 | 0.00 | 0.00 | 51 | 1020.4 |
| 20260509114048 | 66 | 94 | 0.9 | 4.3 | 0.00 | 0.00 | 0.00 | 52 | 1020.5 |
| 20260509113552 | 66 | 34 | 0.0 | 3.5 | 0.00 | 0.00 | 0.00 | 52 | 1020.7 |
| 20260509113100 | 65 | 79 | 0.9 | 7.0 | 0.00 | 0.00 | 0.00 | 53 | 1020.7 |
| 20260509112552 | 65 | 12 | 0.9 | 7.0 | 0.00 | 0.00 | 0.00 | 53 | 1020.6 |
| 20260509112052 | 65 | 56 | 1.7 | 5.2 | 0.00 | 0.00 | 0.00 | 52 | 1020.6 |
| 20260509111557 | 65 | 348 | 0.9 | 3.5 | 0.00 | 0.00 | 0.00 | 52 | 1020.9 |
| 20260509111052 | 65 | 78 | 0.9 | 5.2 | 0.00 | 0.00 | 0.00 | 51 | 1020.9 |
| 20260509110553 | 65 | 22 | 0.9 | 5.2 | 0.00 | 0.00 | 0.00 | 52 | 1020.9 |
| 20260509110055 | 64 | 24 | 0.9 | 5.2 | 0.00 | 0.00 | 0.00 | 52 | 1021.1 |
| 20260509105548 | 64 | 326 | 0.9 | 5.2 | 0.00 | 0.00 | 0.00 | 51 | 1021.1 |
| 20260509105052 | 64 | 75 | 1.7 | 5.2 | 0.00 | 0.00 | 0.00 | 51 | 1021.1 |
| 20260509104552 | 64 | 71 | 0.9 | 3.5 | 0.00 | 0.00 | 0.00 | 52 | 1021.3 |
| 20260509104051 | 64 | 96 | 0.0 | 4.3 | 0.00 | 0.00 | 0.00 | 53 | 1021.4 |
| 20260509103551 | 64 | 0 | 0.9 | 4.3 | 0.00 | 0.00 | 0.00 | 52 | 1021.4 |
| 20260509103057 | 63 | 63 | 0.0 | 6.1 | 0.00 | 0.00 | 0.00 | 53 | 1021.5 |
| 20260509102550 | 63 | 347 | 0.9 | 6.1 | 0.00 | 0.00 | 0.00 | 54 | 1021.6 |
| 20260509102049 | 63 | 61 | 0.0 | 5.2 | 0.00 | 0.00 | 0.00 | 54 | 1021.6 |
| 20260509101554 | 63 | 329 | 0.0 | 5.2 | 0.00 | 0.00 | 0.00 | 55 | 1021.6 |
| 20260509101049 | 62 | 93 | 1.7 | 6.1 | 0.00 | 0.00 | 0.00 | 55 | 1021.9 |
| 20260509100552 | 62 | 36 | 0.9 | 6.1 | 0.00 | 0.00 | 0.00 | 55 | 1022.0 |
| 20260509100054 | 62 | 51 | 0.9 | 6.1 | 0.00 | 0.00 | 0.00 | 56 | 1022.1 |
| 20260509095551 | 62 | 63 | 1.7 | 6.1 | 0.00 | 0.00 | 0.00 | 55 | 1022.2 |
| 20260509095051 | 62 | 0 | 1.7 | 4.3 | 0.00 | 0.00 | 0.00 | 55 | 1022.3 |
| 20260509094556 | 62 | 331 | 0.0 | 6.1 | 0.00 | 0.00 | 0.00 | 55 | 1022.4 |
| 20260509094052 | 61 | 36 | 0.9 | 6.1 | 0.00 | 0.00 | 0.00 | 55 | 1022.4 |
| 20260509093552 | 61 | 176 | 0.9 | 5.2 | 0.00 | 0.00 | 0.00 | 56 | 1022.5 |
| 20260509093058 | 61 | 33 | 0.9 | 5.2 | 0.00 | 0.00 | 0.00 | 56 | 1022.7 |
| 20260509092550 | 61 | 56 | 0.9 | 5.2 | 0.00 | 0.00 | 0.00 | 55 | 1022.6 |
| 20260509092049 | 61 | 52 | 1.7 | 5.2 | 0.00 | 0.00 | 0.00 | 56 | 1022.7 |
| 20260509091556 | 61 | 203 | 0.9 | 6.1 | 0.00 | 0.00 | 0.00 | 55 | 1022.7 |
| 20260509091053 | 60 | 93 | 1.7 | 6.1 | 0.00 | 0.00 | 0.00 | 55 | 1022.8 |
| 20260509090549 | 60 | 49 | 1.7 | 3.5 | 0.00 | 0.00 | 0.00 | 55 | 1022.8 |
| 20260509090050 | 61 | 19 | 0.9 | 4.3 | 0.00 | 0.00 | 0.00 | 55 | 1022.8 |
| 20260509085549 | 60 | 0 | 0.9 | 4.3 | 0.00 | 0.00 | 0.00 | 55 | 1022.9 |
| 20260509085052 | 60 | 360 | 0.9 | 4.3 | 0.00 | 0.00 | 0.00 | 55 | 1022.9 |
| 20260509084554 | 60 | 218 | 0.9 | 4.3 | 0.00 | 0.00 | 0.00 | 57 | 1022.9 |
| 20260509084049 | 60 | 0 | 0.9 | 3.5 | 0.00 | 0.00 | 0.00 | 56 | 1022.9 |
| 20260509083548 | 59 | 115 | 0.9 | 4.3 | 0.00 | 0.00 | 0.00 | 57 | 1023.0 |
| 20260509083055 | 59 | 46 | 0.9 | 4.3 | 0.00 | 0.00 | 0.00 | 57 | 1023.1 |
| 20260509082551 | 59 | 103 | 0.9 | 3.5 | 0.00 | 0.00 | 0.00 | 57 | 1023.0 |
| 20260509082050 | 59 | 323 | 0.0 | 3.5 | 0.00 | 0.00 | 0.00 | 57 | 1023.2 |
| 20260509081552 | 58 | 50 | 0.9 | 3.5 | 0.00 | 0.00 | 0.00 | 57 | 1023.1 |
| 20260509081052 | 58 | 96 | 0.9 | 3.5 | 0.00 | 0.00 | 0.00 | 57 | 1023.2 |
| 20260509080552 | 58 | 95 | 0.9 | 3.5 | 0.00 | 0.00 | 0.00 | 58 | 1023.1 |
| 20260509080051 | 58 | 0 | 0.9 | 5.2 | 0.00 | 0.00 | 0.00 | 59 | 1023.3 |
| 20260509075549 | 58 | 148 | 0.9 | 5.2 | 0.00 | 0.00 | 0.00 | 60 | 1023.3 |
| 20260509075050 | 58 | 357 | 0.9 | 4.3 | 0.00 | 0.00 | 0.00 | 59 | 1023.3 |
| 20260509074603 | 58 | 86 | 0.0 | 4.3 | 0.00 | 0.00 | 0.00 | 59 | 1023.3 |
| 20260509074051 | 58 | 71 | 0.0 | 3.5 | 0.00 | 0.00 | 0.00 | 60 | 1023.3 |
| 20260509073549 | 58 | 20 | 0.9 | 3.5 | 0.00 | 0.00 | 0.00 | 60 | 1023.3 |
| 20260509073100 | 57 | 60 | 0.0 | 2.6 | 0.00 | 0.00 | 0.00 | 61 | 1023.2 |
| 20260509072551 | 57 | 105 | 0.9 | 2.6 | 0.00 | 0.00 | 0.00 | 62 | 1023.2 |
| 20260509072052 | 57 | 62 | 0.0 | 2.6 | 0.00 | 0.00 | 0.00 | 61 | 1023.2 |
| 20260509071559 | 57 | 0 | 0.0 | 1.7 | 0.00 | 0.00 | 0.00 | 63 | 1023.1 |
| 20260509071050 | 57 | 0 | 0.0 | 2.6 | 0.00 | 0.00 | 0.00 | 62 | 1023.1 |
| 20260509070552 | 56 | 66 | 0.0 | 2.6 | 0.00 | 0.00 | 0.00 | 63 | 1023.1 |
| 20260509070055 | 56 | 85 | 0.9 | 2.6 | 0.00 | 0.00 | 0.00 | 62 | 1023.0 |
| 20260509065552 | 56 | 103 | 0.0 | 2.6 | 0.00 | 0.00 | 0.00 | 63 | 1023.1 |
| 20260509065051 | 56 | 113 | 0.0 | 2.6 | 0.00 | 0.00 | 0.00 | 62 | 1022.9 |
| 20260509064601 | 56 | 0 | 0.0 | 0.9 | 0.00 | 0.00 | 0.00 | 64 | 1022.6 |
| 20260509064050 | 56 | 103 | 0.0 | 0.9 | 0.00 | 0.00 | 0.00 | 63 | 1022.7 |
| 20260509063549 | 56 | 0 | 0.0 | 0.9 | 0.00 | 0.00 | 0.00 | 64 | 1022.6 |
| 20260509063053 | 56 | 0 | 0.0 | 0.9 | 0.00 | 0.00 | 0.00 | 64 | 1022.5 |
| 20260509062551 | 55 | 56 | 0.0 | 0.9 | 0.00 | 0.00 | 0.00 | 65 | 1022.5 |
| 20260509062051 | 55 | 0 | 0.0 | 0.9 | 0.00 | 0.00 | 0.00 | 65 | 1022.4 |
| 20260509061622 | 54 | 0 | 0.0 | 0.0 | 0.00 | 0.00 | 0.00 | 66 | 1022.5 |
| 20260509061052 | 55 | 0 | 0.0 | 0.0 | 0.00 | 0.00 | 0.00 | 66 | 1022.3 |
| 20260509060549 | 53 | 0 | 0.0 | 0.0 | 0.00 | 0.00 | 0.00 | 69 | 1022.3 |
| 20260509060055 | 53 | 0 | 0.0 | 0.0 | 0.00 | 0.00 | 0.00 | 70 | 1022.3 |
| 20260509055549 | 51 | 159 | 0.0 | 0.0 | 0.00 | 0.00 | 0.00 | 72 | 1022.3 |
| 20260509055050 | 49 | 0 | 0.0 | 0.0 | 0.00 | 0.00 | 0.00 | 80 | 1022.2 |
| 20260509054555 | 46 | 0 | 0.0 | 0.0 | 0.00 | 0.00 | 0.00 | 85 | 1022.1 |
| 20260509054048 | 44 | 0 | 0.0 | 0.0 | 0.00 | 0.00 | 0.00 | 89 | 1022.0 |
| 20260509053550 | 42 | 0 | 0.0 | 0.0 | 0.00 | 0.00 | 0.00 | 89 | 1022.0 |
| 20260509053055 | 42 | 0 | 0.0 | 0.0 | 0.00 | 0.00 | 0.00 | 90 | 1021.9 |
| 20260509052552 | 41 | 0 | 0.0 | 0.0 | 0.00 | 0.00 | 0.00 | 90 | 1021.8 |
| 20260509052049 | 41 | 0 | 0.0 | 0.0 | 0.00 | 0.00 | 0.00 | 90 | 1021.8 |
| 20260509051556 | 41 | 0 | 0.0 | 0.0 | 0.00 | 0.00 | 0.00 | 91 | 1021.8 |
| 20260509051049 | 40 | 0 | 0.0 | 0.0 | 0.00 | 0.00 | 0.00 | 91 | 1021.7 |
| 20260509050552 | 40 | 0 | 0.0 | 0.0 | 0.00 | 0.00 | 0.00 | 91 | 1021.7 |
| 20260509050108 | 40 | 0 | 0.0 | 0.0 | 0.00 | 0.00 | 0.00 | 91 | 1021.6 |
| 20260509045551 | 40 | 0 | 0.0 | 0.0 | 0.00 | 0.00 | 0.00 | 91 | 1021.6 |
| 20260509045052 | 40 | 0 | 0.0 | 0.0 | 0.00 | 0.00 | 0.00 | 91 | 1021.6 |
| 20260509044557 | 40 | 0 | 0.0 | 0.0 | 0.00 | 0.00 | 0.00 | 91 | 1021.5 |
| 20260509044052 | 40 | 0 | 0.0 | 0.0 | 0.00 | 0.00 | 0.00 | 91 | 1021.5 |
| 20260509043552 | 40 | 0 | 0.0 | 0.0 | 0.00 | 0.00 | 0.00 | 91 | 1021.4 |
| 20260509043106 | 40 | 0 | 0.0 | 0.0 | 0.00 | 0.00 | 0.00 | 91 | 1021.5 |
| 20260509042551 | 40 | 0 | 0.0 | 0.0 | 0.00 | 0.00 | 0.00 | 91 | 1021.4 |
| 20260509042054 | 40 | 0 | 0.0 | 0.0 | 0.00 | 0.00 | 0.00 | 90 | 1021.3 |
| 20260509041606 | 40 | 0 | 0.0 | 0.0 | 0.00 | 0.00 | 0.00 | 91 | 1021.4 |
| 20260509041051 | 40 | 0 | 0.0 | 0.0 | 0.00 | 0.00 | 0.00 | 90 | 1021.1 |
| 20260509040551 | 40 | 0 | 0.0 | 0.0 | 0.00 | 0.00 | 0.00 | 90 | 1021.1 |
| 20260509040054 | 40 | 0 | 0.0 | 0.0 | 0.00 | 0.00 | 0.00 | 90 | 1021.1 |
| 20260509035552 | 40 | 0 | 0.0 | 0.0 | 0.00 | 0.00 | 0.00 | 90 | 1021.2 |
| 20260509035053 | 40 | 0 | 0.0 | 0.0 | 0.00 | 0.00 | 0.00 | 90 | 1021.1 |
| 20260509034554 | 40 | 0 | 0.0 | 0.0 | 0.00 | 0.00 | 0.00 | 90 | 1021.2 |
| 20260509034052 | 40 | 0 | 0.0 | 0.0 | 0.00 | 0.00 | 0.00 | 90 | 1021.2 |
| 20260509033552 | 40 | 0 | 0.0 | 0.0 | 0.00 | 0.00 | 0.00 | 90 | 1021.1 |
| 20260509033056 | 40 | 0 | 0.0 | 0.0 | 0.00 | 0.00 | 0.00 | 90 | 1021.1 |
| 20260509032552 | 40 | 0 | 0.0 | 0.0 | 0.00 | 0.00 | 0.00 | 89 | 1021.1 |
| 20260509032051 | 40 | 0 | 0.0 | 0.0 | 0.00 | 0.00 | 0.00 | 90 | 1021.3 |
| 20260509031554 | 40 | 0 | 0.0 | 0.0 | 0.00 | 0.00 | 0.00 | 89 | 1021.1 |
| 20260509031052 | 41 | 0 | 0.0 | 0.0 | 0.00 | 0.00 | 0.00 | 90 | 1021.2 |
| 20260509030549 | 41 | 0 | 0.0 | 0.0 | 0.00 | 0.00 | 0.00 | 90 | 1021.1 |
| 20260509030053 | 41 | 0 | 0.0 | 0.0 | 0.00 | 0.00 | 0.00 | 89 | 1021.1 |
| 20260509025554 | 41 | 0 | 0.0 | 0.0 | 0.00 | 0.00 | 0.00 | 89 | 1021.1 |
| 20260509025051 | 41 | 0 | 0.0 | 0.0 | 0.00 | 0.00 | 0.00 | 89 | 1020.9 |
| 20260509024552 | 41 | 0 | 0.0 | 0.0 | 0.00 | 0.00 | 0.00 | 89 | 1020.9 |
| 20260509024050 | 41 | 0 | 0.0 | 0.0 | 0.00 | 0.00 | 0.00 | 88 | 1020.8 |
| 20260509023553 | 41 | 0 | 0.0 | 0.0 | 0.00 | 0.00 | 0.00 | 88 | 1020.9 |
| 20260509023052 | 41 | 0 | 0.0 | 0.0 | 0.00 | 0.00 | 0.00 | 88 | 1020.9 |
| 20260509022553 | 41 | 0 | 0.0 | 0.0 | 0.00 | 0.00 | 0.00 | 88 | 1021.0 |
| 20260509022049 | 41 | 0 | 0.0 | 0.0 | 0.00 | 0.00 | 0.00 | 88 | 1021.1 |
| 20260509021554 | 41 | 0 | 0.0 | 0.0 | 0.00 | 0.00 | 0.00 | 87 | 1021.0 |
| 20260509021052 | 41 | 0 | 0.0 | 0.0 | 0.00 | 0.00 | 0.00 | 87 | 1021.0 |
| 20260509020550 | 41 | 0 | 0.0 | 0.0 | 0.00 | 0.00 | 0.00 | 88 | 1021.0 |
| 20260509020050 | 41 | 0 | 0.0 | 0.0 | 0.00 | 0.00 | 0.00 | 88 | 1021.0 |
| 20260509015552 | 41 | 0 | 0.0 | 0.0 | 0.00 | 0.00 | 0.00 | 88 | 1021.1 |
| 20260509015050 | 41 | 0 | 0.0 | 0.0 | 0.00 | 0.00 | 0.00 | 87 | 1021.1 |
| 20260509014553 | 41 | 0 | 0.0 | 0.0 | 0.00 | 0.00 | 0.00 | 87 | 1021.1 |
| 20260509014053 | 41 | 0 | 0.0 | 0.0 | 0.00 | 0.00 | 0.00 | 87 | 1021.1 |
| 20260509013548 | 41 | 0 | 0.0 | 0.0 | 0.00 | 0.00 | 0.00 | 88 | 1021.1 |
| 20260509013056 | 41 | 0 | 0.0 | 0.0 | 0.00 | 0.00 | 0.00 | 88 | 1021.1 |
| 20260509012549 | 41 | 0 | 0.0 | 0.0 | 0.00 | 0.00 | 0.00 | 88 | 1021.2 |
| 20260509012052 | 41 | 0 | 0.0 | 0.0 | 0.00 | 0.00 | 0.00 | 88 | 1021.3 |
| 20260509011553 | 41 | 0 | 0.0 | 0.0 | 0.00 | 0.00 | 0.00 | 88 | 1021.3 |
| 20260509011050 | 41 | 0 | 0.0 | 0.0 | 0.00 | 0.00 | 0.00 | 88 | 1021.3 |
| 20260509010552 | 41 | 0 | 0.0 | 0.0 | 0.00 | 0.00 | 0.00 | 89 | 1021.3 |
| 20260509010054 | 42 | 0 | 0.0 | 0.0 | 0.00 | 0.00 | 0.00 | 89 | 1021.2 |
| 20260509005552 | 42 | 0 | 0.0 | 0.0 | 0.00 | 0.00 | 0.00 | 89 | 1021.2 |
| 20260509005052 | 42 | 0 | 0.0 | 0.0 | 0.00 | 0.00 | 0.00 | 88 | 1021.3 |
| 20260509004621 | 42 | 0 | 0.0 | 0.0 | 0.00 | 0.00 | 0.00 | 88 | 1021.3 |
| 20260509004052 | 42 | 0 | 0.0 | 0.0 | 0.00 | 0.00 | 0.00 | 88 | 1021.3 |
| 20260509003555 | 42 | 0 | 0.0 | 0.0 | 0.00 | 0.00 | 0.00 | 88 | 1021.4 |
| 20260509003054 | 42 | 0 | 0.0 | 0.0 | 0.00 | 0.00 | 0.00 | 88 | 1021.3 |
| 20260509002551 | 42 | 0 | 0.0 | 0.0 | 0.00 | 0.00 | 0.00 | 87 | 1021.4 |
| 20260509002052 | 42 | 0 | 0.0 | 0.0 | 0.00 | 0.00 | 0.00 | 87 | 1021.4 |
| 20260509001559 | 42 | 0 | 0.0 | 0.0 | 0.00 | 0.00 | 0.00 | 87 | 1021.5 |
| 20260509001052 | 42 | 0 | 0.0 | 0.0 | 0.00 | 0.00 | 0.00 | 88 | 1021.4 |
| 20260509000549 | 42 | 0 | 0.0 | 0.0 | 0.00 | 0.00 | 0.00 | 88 | 1021.4 |
| 20260509000053 | 42 | 0 | 0.0 | 0.0 | 0.00 | 0.00 | 0.00 | 88 | 1021.5 |
| 20260508235553 | 42 | 0 | 0.0 | 0.0 | 0.00 | 0.00 | 0.00 | 88 | 1021.5 |
| 20260508235055 | 42 | 0 | 0.0 | 0.0 | 0.00 | 0.00 | 0.00 | 88 | 1021.6 |
| 20260508234604 | 42 | 0 | 0.0 | 0.0 | 0.00 | 0.00 | 0.00 | 88 | 1021.6 |
| 20260508234056 | 42 | 0 | 0.0 | 0.0 | 0.00 | 0.00 | 0.00 | 88 | 1021.6 |
| 20260508233552 | 42 | 0 | 0.0 | 0.0 | 0.00 | 0.00 | 0.00 | 89 | 1021.6 |
| 20260508233102 | 42 | 0 | 0.0 | 0.0 | 0.00 | 0.00 | 0.00 | 89 | 1021.6 |
| 20260508232554 | 42 | 0 | 0.0 | 0.0 | 0.00 | 0.00 | 0.00 | 89 | 1021.6 |
| 20260508232053 | 42 | 0 | 0.0 | 0.0 | 0.00 | 0.00 | 0.00 | 89 | 1021.6 |
| 20260508231602 | 42 | 0 | 0.0 | 0.0 | 0.00 | 0.00 | 0.00 | 89 | 1021.5 |
| 20260508231052 | 42 | 0 | 0.0 | 0.0 | 0.00 | 0.00 | 0.00 | 89 | 1021.5 |
| 20260508230551 | 42 | 0 | 0.0 | 0.0 | 0.00 | 0.00 | 0.00 | 88 | 1021.4 |
| 20260508230058 | 42 | 0 | 0.0 | 0.0 | 0.00 | 0.00 | 0.00 | 88 | 1021.4 |
| 20260508225550 | 42 | 0 | 0.0 | 0.0 | 0.00 | 0.00 | 0.00 | 88 | 1021.4 |
| 20260508225050 | 42 | 0 | 0.0 | 0.0 | 0.00 | 0.00 | 0.00 | 88 | 1021.4 |
| 20260508224558 | 42 | 0 | 0.0 | 0.0 | 0.00 | 0.00 | 0.00 | 88 | 1021.5 |
| 20260508224049 | 42 | 0 | 0.0 | 0.0 | 0.00 | 0.00 | 0.00 | 88 | 1021.5 |
| 20260508223549 | 42 | 0 | 0.0 | 0.0 | 0.00 | 0.00 | 0.00 | 88 | 1021.5 |
| 20260508223058 | 42 | 0 | 0.0 | 0.0 | 0.00 | 0.00 | 0.00 | 88 | 1021.5 |
| 20260508222550 | 42 | 0 | 0.0 | 0.0 | 0.00 | 0.00 | 0.00 | 88 | 1021.4 |
| 20260508222049 | 43 | 0 | 0.0 | 0.0 | 0.00 | 0.00 | 0.00 | 88 | 1021.3 |
| 20260508221555 | 42 | 0 | 0.0 | 0.0 | 0.00 | 0.00 | 0.00 | 88 | 1021.3 |
| 20260508221053 | 43 | 0 | 0.0 | 0.0 | 0.00 | 0.00 | 0.00 | 88 | 1021.3 |
| 20260508220552 | 43 | 0 | 0.0 | 0.0 | 0.00 | 0.00 | 0.00 | 88 | 1021.4 |
| 20260508220058 | 43 | 0 | 0.0 | 0.0 | 0.00 | 0.00 | 0.00 | 87 | 1021.4 |
| 20260508215552 | 43 | 0 | 0.0 | 0.0 | 0.00 | 0.00 | 0.00 | 87 | 1021.4 |
| 20260508215052 | 43 | 0 | 0.0 | 0.0 | 0.00 | 0.00 | 0.00 | 87 | 1021.5 |
| 20260508214616 | 43 | 0 | 0.0 | 0.0 | 0.00 | 0.00 | 0.00 | 87 | 1021.5 |
| 20260508214052 | 43 | 0 | 0.0 | 0.0 | 0.00 | 0.00 | 0.00 | 87 | 1021.5 |
| 20260508213552 | 43 | 0 | 0.0 | 0.0 | 0.00 | 0.00 | 0.00 | 86 | 1021.6 |